Location: G�migny
(47.9646°N, 1.6950°E)
Time: 22:20:38
(UTC+00:00)

NOAA 12 - Pass Details

Date: 23 October 2019
Orbit: 796 x 814 km, 98.5° (Epoch: 13 November)

Event Time Altitude Azimuth Distance (km) Brightness Sun altitude
Rises 17:18:11 0° 155° (SSE) 3,309 7.1 -5.3°
Reaches altitude 10° 17:20:31 10° 153° (SSE) 2,385 6.4 -5.7°
Maximum altitude 17:25:45 68° 72° (ENE) 875 4.1 -6.5°
Drops below altitude 10° 17:31:03 10° 350° (N) 2,412 6.6 -7.4°
Sets 17:33:25 0° 348° (NNW) 3,350 7.4 -7.8°
